Meteo Giornale » Osservazioni meteo Italia » Firenze-Peretola

ore: 22:50 - Osservazioni Meteo Firenze-Peretola
Lat. 43° 48' N Lon. 11° 12' E Alt. 40 metri s.l.m.

nuvoloso Europe/Rome

19 °C

Nuvoloso

Temp. 24 Ore

15 °C

25 °C

Sud/Sud-Ovest

9.3 Km/h

Dew point 15 °C

Umidità 77 %

Visibilità  10 Km

Il sole sorge alle ore 05:31

Il sole tramonta alle ore 20:56

Data e Ora Cielo e Fenomeni T °C DP °C Um. % Pres. hPa Vis. km Vento km/h
Oggi h: 22:50 nuvoloso Nuvoloso 19 15 77 1010 10 S/SO 9.3
Oggi h: 22:20 molto_nuvoloso Molto Nuvoloso 20 15 72 1009 10 S/SO 11.1
Oggi h: 21:50 molto_nuvoloso Molto Nuvoloso 20 15 72 1009 10 S/SO 11.1
Oggi h: 21:20 molto_nuvoloso Molto Nuvoloso 20 14 68 1009 10 SO 13
Oggi h: 20:50 nuvoloso Nuvoloso 21 14 64 1009 10 SO 13
Oggi h: 20:20 nuvoloso Nuvoloso 21 14 64 1008 10 SO 16.7
Oggi h: 19:50 poco_nuvoloso Poco Nuvoloso 22 14 60 1008 10 SO 18.5
Oggi h: 18:50 nuvoloso Nuvoloso 23 14 56 1008 10 O/SO 20.3
Oggi h: 17:50 nuvoloso Nuvoloso 23 13 53 1008 10 O/SO 20.3
Oggi h: 17:20 nuvoloso Nuvoloso 24 15 57 1008 10 O/SO 20.3
Oggi h: 16:50 molto_nuvoloso Molto Nuvoloso 24 15 57 1009 10 O 20.3
Oggi h: 16:20 molto_nuvoloso Molto Nuvoloso 24 15 57 1008 10 O 20.3
Oggi h: 15:50 molto_nuvoloso Molto Nuvoloso 24 16 60 1008 10 O 22.2
Oggi h: 15:20 molto_nuvoloso Molto Nuvoloso 23 15 60 1008 10 O 16.7
Oggi h: 14:50 molto_nuvoloso Molto Nuvoloso 24 15 57 1008 10 O/SO 16.7
Oggi h: 14:20 nuvoloso Nuvoloso 25 15 53 1008 10 SO 18.5
Oggi h: 13:50 nuvoloso Nuvoloso 25 15 53 1008 10 O/SO 18.5
Oggi h: 13:20 nuvoloso Nuvoloso 25 15 53 1008 10 O 18.5
Oggi h: 12:50 nuvoloso Nuvoloso 24 14 53 1008 10 O 11.1
Oggi h: 12:20 nuvoloso Nuvoloso 25 14 50 1008 10 O/SO 14.8
Oggi h: 11:50 nuvoloso Nuvoloso 24 14 53 1008 10 SO 14.8
Oggi h: 11:20 nuvoloso Nuvoloso 24 16 60 1008 10 SO 13
Oggi h: 10:50 nuvoloso Nuvoloso 24 16 60 1008 10 O/SO 13
Oggi h: 10:20 nuvoloso Nuvoloso 22 15 64 1008 10 N 7.4
Oggi h: 09:50 nuvoloso Nuvoloso 22 15 64 1008 10 N 5.5
Oggi h: 09:20 nuvoloso Nuvoloso 21 15 68 1008 10 N 3.7
Oggi h: 08:50 poco_nuvoloso Poco Nuvoloso 20 15 72 1008 10 E/SE 9.3
Oggi h: 08:20 poco_nuvoloso Poco Nuvoloso 19 16 82 1008 10 E 9.3
Oggi h: 07:50 nuvoloso Nuvoloso 17 15 88 1008 10 N 1.8
Oggi h: 07:20 poco_nuvoloso Poco Nuvoloso 16 15 93 1008 10 N 3.7
Oggi h: 06:50 poco_nuvoloso Poco Nuvoloso 16 15 93 1007 10 N 3.7
Oggi h: 06:20 poco_nuvoloso Poco Nuvoloso 16 14 87 1007 10 SE 7.4
Oggi h: 05:50 nuvoloso Nuvoloso 15 14 93 1007 10 N 5.5
Oggi h: 05:20 molto_nuvoloso Molto Nuvoloso 16 15 93 1007 10 N 3.7
Oggi h: 04:50 nuvoloso Nuvoloso 15 14 93 1007 10 N 3.7
Oggi h: 04:20 poco_nuvoloso Poco Nuvoloso 16 15 93 1007 10 N 5.5
Oggi h: 03:50 sereno Sereno 15 14 93 1006 10 E 9.3
Oggi h: 03:20 sereno Sereno 15 14 93 1006 10 N 5.5
Oggi h: 02:50 sereno Sereno 15 13 87 1007 10 N 3.7
Oggi h: 02:20 sereno Sereno 16 14 87 1007 10 N 1.8
Oggi h: 01:50 sereno Sereno 17 14 82 1006 10 N 5.5
Oggi h: 01:20 poco_nuvoloso Poco Nuvoloso 16 14 87 1006 10 E 11.1
Oggi h: 00:50 poco_nuvoloso Poco Nuvoloso 16 14 87 1006 10 N 5.5
Oggi h: 00:20 sereno Sereno 17 14 82 1006 10 N 5.5
Ieri h: 23:50 sereno Sereno 17 14 82 1006 10 N 5.5